Location: Palo Alto
(37.4420°N, 122.1420°W)
Time: 21:22:24
(UTC-07:00)

ISS - All Passes

Search period start: 29 May 2015 00:00
Search period end: 08 June 2015 00:00
Orbit: 399 x 404 km, 51.6° (Epoch: 29 May)

Date Brightness Start Highest point End Pass type
(mag) Time Alt. Az. Time Alt. Az. Time Alt. Az.
29 May - 00:44:39 10° NW 00:46:27 14° NNW 00:48:12 10° N visible
29 May - 04:00:42 10° N 04:01:45 11° NNE 04:02:52 10° NE visible
29 May - 05:35:37 10° NW 05:38:49 50° NE 05:42:00 10° ESE daylight
29 May - 07:13:09 10° W 07:14:57 14° SW 07:16:40 10° SSW daylight
29 May - 22:13:16 10° SSW 22:16:22 45° SE 22:19:29 10° ENE night (unlit)
29 May - 23:50:25 10° W 23:52:57 20° NNW 23:55:28 10° NNE visible
30 May - 04:42:36 10° NNW 04:45:27 27° NNE 04:48:20 10° E visible
30 May - 06:18:59 10° WNW 06:21:51 28° SW 06:24:41 10° SSE daylight
30 May - 21:20:44 10° S 21:23:14 21° SE 21:25:47 10° E visible
30 May - 22:56:32 10° W 22:59:31 34° NNW 23:02:31 10° NNE visible
31 May - 03:49:44 10° NNW 03:52:00 17° NNE 03:54:18 10° ENE visible
31 May - 05:25:27 10° NW 05:28:41 62° SW 05:31:54 10° SE daylight
31 May - 20:29:52 10° SE 20:30:08 10° SE 20:30:34 10° ESE daylight
31 May - 22:02:58 10° WSW 22:06:11 67° NW 22:09:25 10° NE visible
31 May - 23:41:35 10° NW 23:43:08 13° NNW 23:44:38 10° N visible
01 Jun - 02:57:04 10° N 02:58:26 12° NNE 02:59:51 10° NE visible
01 Jun - 04:32:12 10° NW 04:35:25 60° NE 04:38:39 10° ESE visible
01 Jun - 06:10:16 10° WSW 06:11:31 11° SW 06:12:36 10° SSW daylight
01 Jun - 21:09:46 10° SW 21:12:56 55° SE 21:16:07 10° ENE visible
01 Jun - 22:47:12 10° WNW 22:49:34 18° NNW 22:51:56 10° NNE visible
02 Jun - 03:39:06 10° NNW 03:42:04 31° NNE 03:45:02 10° E visible
02 Jun - 05:15:41 10° WNW 05:18:23 24° SW 05:21:03 10° S visible
02 Jun - 20:17:03 10° S 20:19:45 25° SE 20:22:30 10° ENE daylight
02 Jun - 21:53:12 10° W 21:56:06 29° NNW 21:59:00 10° NNE visible
03 Jun - 02:46:10 10° NNW 02:48:35 19° NNE 02:51:03 10° ENE visible
03 Jun - 04:22:02 10° WNW 04:25:13 51° SW 04:28:22 10° SSE visible
03 Jun - 19:25:17 10° SSE 19:26:37 12° SE 19:28:03 10° ESE daylight
03 Jun - 20:59:32 10° WSW 21:02:42 56° NW 21:05:54 10° NE visible
03 Jun - 22:38:27 10° NW 22:39:43 12° NNW 22:40:56 10° N visible
04 Jun - 01:53:25 10° N 01:55:02 13° NNE 01:56:41 10° NE visible
04 Jun - 03:28:41 10° NW 03:31:56 72° NE 03:35:11 10° SE visible
04 Jun - 20:06:12 10° SW 20:09:24 67° SE 20:12:38 10° NE daylight
04 Jun - 21:43:55 10° WNW 21:46:07 17° NNW 21:48:18 10° NNE visible
05 Jun - 02:35:31 10° NW 02:38:34 36° NE 02:41:37 10° ESE visible
05 Jun - 04:12:20 10° W 04:14:49 20° SW 04:17:15 10° S night (unlit)
05 Jun - 19:13:19 10° SSW 19:16:10 30° SE 19:19:04 10° ENE daylight
05 Jun - 20:49:47 10° W 20:52:35 26° NNW 20:55:23 10° NNE visible
06 Jun - 01:42:30 10° NNW 01:45:05 21° NNE 01:47:40 10° E visible
06 Jun - 03:18:31 10° WNW 03:21:37 42° SW 03:24:42 10° SSE night (unlit)
06 Jun - 18:21:10 10° SSE 18:22:59 15° SE 18:24:55 10° E daylight
06 Jun - 19:56:00 10° WSW 19:59:08 47° NW 20:02:17 10° NE daylight
06 Jun - 21:35:19 10° NW 21:36:13 11° NNW 21:37:04 10° N visible
07 Jun - 00:49:40 10° NNW 00:51:30 14° NNE 00:53:23 10° ENE visible
07 Jun - 02:25:05 10° NW 02:28:21 86° NE 02:31:36 10° SE visible
07 Jun - 19:02:33 10° SW 19:05:47 81° SE 19:09:01 10° NE daylight
07 Jun - 20:40:32 10° WNW 20:42:33 15° NNW 20:44:33 10° NNE daylight
07 Jun - 23:57:24 10° N 23:57:50 10° NNE 23:58:19 10° NNE visible
